Regional Weather Roundup
Issued by NWS

Home | Current Version | Previous Version | Text Only | Print | Product List | Glossary Off
Versions: 1 2 3 4 5 6 7 8 9 10 11 12 13 14 15 16 17 18 19 20 21 22 23 24 25 26 27 28 29 30 31 32 33 34 35 36 37 38 39 40 41 42 43 44 45 46 47 48 49 50

000
ASUS45 KCYS 301110
RWRWY

WYOMING REGIONAL WEATHER ROUNDUP
NATIONAL WEATHER SERVICE CHEYENNE WY
500 AM MDT SUN AUG 30 2015

NOTE:  "FAIR" INDICATES FEW OR NO CLOUDS BELOW 12,000 FEET
WITH NO SIGNIFICANT WEATHER AND/OR OBSTRUCTIONS TO VISIBILITY.

WYZ001-301200-
YELLOWSTONE NATIONAL PARK

CITY           SKY/WX    TMP DP  RH WIND       PRES   REMARKS
LK YELLOWSTONE   N/A     47  45  93 CALM      30.15F
W YELLOWSTONE  NOT AVBL

$$
WYZ002>013-054>058-071-098>099-301200-
NORTHERN WYOMING

CITY           SKY/WX    TMP DP  RH WIND       PRES   REMARKS
JACKSON        MOCLDY    54  50  87 SW6       30.08R
CODY           FAIR      72  43  35 W5        29.92S
GREYBULL       FAIR      75  43  31 NE9       29.84F
WORLAND        FAIR      63  44  50 E8        29.89R
SHERIDAN       FAIR      66  42  41 NW9       29.81R
BUFFALO        FAIR      78  36  21 SW12      29.90S
GILLETTE       FAIR      71  33  24 S18       29.85F
HULETT         FAIR      77  36  22 S10       29.87F
NEWCASTLE      FAIR      70  36  28 E9        29.93S

$$
WYZ014>020-022>026-101>103-301200-
CENTRAL WYOMING

CITY           SKY/WX    TMP DP  RH WIND       PRES   REMARKS
BIG PINEY      FAIR      53  40  61 NW7       30.15R
PINEDALE       PTSUNNY   55  39  54 SE5       30.15R
DUBOIS         PTSUNNY   55  43  62 NW14      30.12R
LANDER         FAIR      72  36  26 E6        29.97S
RIVERTON       FAIR      64  44  48 NW6       29.98F
CASPER         FAIR      65  32  29 SW8       29.99F
DOUGLAS        FAIR      59  39  47 SE3       30.00S

$$
WYZ021-027>030-104>119-301200-
SOUTHERN WYOMING

CITY           SKY/WX    TMP DP  RH WIND       PRES   REMARKS
EVANSTON       FAIR      67  39  35 SW15      30.13F
KEMMERER       FAIR      63  34  34 S6        30.14S
FORT BRIDGER   SUNNY     72  37  28 SW20      30.16S
ROCK SPRINGS   MOCLDY    67  32  27 SW13      30.12S
DIXON          FAIR      48  35  60 S3        30.20S
RAWLINS        FAIR      62  29  28 SW8       30.15S
SARATOGA       FAIR      54  36  50 S12       30.20S
LARAMIE        FAIR      47  35  63 S7        30.22S
CHEYENNE       FAIR      57  42  57 W12       30.13S
TORRINGTON     FAIR      62  41  46 SE9       29.97F
PINE BLUFFS    FAIR      50  39  66 W8        30.08S

$$


USA.gov is the U.S. government's official web portal to all federal, state and local government web resources and services.